Location: Stockholm
(59.3330°N, 18.0500°E)
Time: 11:36:00
(UTC+01:00)

FENGYUN 1C DEB - Pass Details

Date: 13 December 2023
Orbit: 841 x 915 km, 98.8° (Epoch: 27 February)

Event Time Altitude Azimuth Distance (km) Brightness Sun altitude
Exits shadow 18:35:49 17° 8° (N) 2,027 ? -26.6°
Drops below altitude 10° 18:37:28 10° 354° (N) 2,489 ? -26.8°
Sets 18:40:14 0° 342° (NNW) 3,437 ? -27.1°
